Tracking 31027 objects as of 19-Jul-2025
HD Live streaming from Space Station
objects crossing your sky now

STARLINK-3355

Track STARLINK-3355 now!
10-day predictions
STARLINK-3355 is classified as:


NORAD ID: 50808
Int'l Code: 2022-001F
Perigee: 545.9 km
Apogee: 547.9 km
Inclination: 53.2 °
Period: 95.4 minutes
Semi major axis: 6917 km
RCS: Unknown
Launch date: January 6, 2022
Source: United States (US)
Launch site: AIR FORCE EASTERN TEST RANGE (AFETR)
Your satellite tracking list
ATLAS 2A CENTAUR R/B
Track 1 satellite(s)




NASA's NSSDC Master Catalog

Two Line Element Set (TLE):
1 50808U 22001F   25199.51555517  .00000307  00000-0  37352-4 0  9990
2 50808  53.2169 130.3705 0001454  87.2797 272.8361 15.08838046195199
Source of the keplerian elements: AFSPC